Location: Helsinki
(60.1699°N, 24.9384°E)
Time: 23:59:39
(UTC+02:00)

A-11 Canister half - Pass Details

Date: 29 October 2020
Orbit: 1516 x 1684 km, 47.2° (Epoch: 26 November)

Event Time Altitude Azimuth Distance (km) Brightness Sun altitude
Rises 00:44:05 0° 266° (W) 4,903 - -42.8°
Reaches altitude 10° 00:47:37 10° 258° (WSW) 3,895 - -42.7°
Maximum altitude 00:56:08 34° 198° (SSW) 2,417 - -42.4°
Drops below altitude 10° 01:04:25 10° 138° (SE) 3,775 - -42.0°
Sets 01:07:47 0° 130° (SE) 4,734 - -41.9°
